Year,Month,Day,Hour,Minute,Value (Times are PST for temperature in C)
2017,08,02,00,00,17.20
2017,08,02,00,01,17.20
2017,08,02,00,02,17.20
2017,08,02,00,03,17.20
2017,08,02,00,04,17.20
2017,08,02,00,05,17.20
2017,08,02,00,06,17.20
2017,08,02,00,07,17.20
2017,08,02,00,08,17.20
2017,08,02,00,09,17.20
2017,08,02,00,10,17.20
2017,08,02,00,11,17.20
2017,08,02,00,12,17.20
2017,08,02,00,13,17.30
2017,08,02,00,14,17.30
2017,08,02,00,15,17.30
2017,08,02,00,16,17.20
2017,08,02,00,17,17.20
2017,08,02,00,18,17.20
2017,08,02,00,19,17.20
2017,08,02,00,20,17.30
2017,08,02,00,21,17.30
2017,08,02,00,22,17.20
2017,08,02,00,23,17.20
2017,08,02,00,24,17.20
2017,08,02,00,25,17.30
2017,08,02,00,26,17.40
2017,08,02,00,27,17.40
2017,08,02,00,28,17.40
2017,08,02,00,29,17.40
2017,08,02,00,30,17.40
2017,08,02,00,31,17.40
2017,08,02,00,32,17.40
2017,08,02,00,33,17.40
2017,08,02,00,34,17.40
2017,08,02,00,35,17.40
2017,08,02,00,36,17.40
2017,08,02,00,37,17.40
2017,08,02,00,38,17.50
2017,08,02,00,39,17.50
2017,08,02,00,40,17.60
2017,08,02,00,41,17.60
2017,08,02,00,42,17.70
2017,08,02,00,43,17.70
2017,08,02,00,44,17.80
2017,08,02,00,45,17.80
2017,08,02,00,46,17.90
2017,08,02,00,47,17.90
2017,08,02,00,48,17.90
2017,08,02,00,49,17.90
2017,08,02,00,50,17.90
2017,08,02,00,51,17.90
2017,08,02,00,52,18.00
2017,08,02,00,53,17.90
2017,08,02,00,54,17.90
2017,08,02,00,55,18.00
2017,08,02,00,56,18.00
2017,08,02,00,57,18.10
2017,08,02,00,58,18.20
2017,08,02,00,59,18.30
2017,08,02,01,00,18.30
2017,08,02,01,01,18.40
2017,08,02,01,02,18.40
2017,08,02,01,03,18.40
2017,08,02,01,04,18.40
2017,08,02,01,05,18.50
2017,08,02,01,06,18.80
2017,08,02,01,07,19.00
2017,08,02,01,08,19.10
2017,08,02,01,09,19.20
2017,08,02,01,10,19.20
2017,08,02,01,11,19.20
2017,08,02,01,12,19.30
2017,08,02,01,13,19.40
2017,08,02,01,14,19.50
2017,08,02,01,15,19.60
2017,08,02,01,16,19.70
2017,08,02,01,17,19.80
2017,08,02,01,18,19.80
2017,08,02,01,19,19.80
2017,08,02,01,20,19.80
2017,08,02,01,21,19.80
2017,08,02,01,22,19.80
2017,08,02,01,23,19.70
2017,08,02,01,24,19.70
2017,08,02,01,25,19.70
2017,08,02,01,26,19.60
2017,08,02,01,27,19.70
2017,08,02,01,28,20.00
2017,08,02,01,29,20.20
2017,08,02,01,30,20.50
2017,08,02,01,31,20.70
2017,08,02,01,32,20.80
2017,08,02,01,33,21.00
2017,08,02,01,34,21.20
2017,08,02,01,35,21.30
2017,08,02,01,36,21.40
2017,08,02,01,37,21.50
2017,08,02,01,38,21.50
2017,08,02,01,39,21.60
2017,08,02,01,40,21.60
2017,08,02,01,41,21.50
2017,08,02,01,42,21.40
2017,08,02,01,43,21.40
2017,08,02,01,44,21.40
2017,08,02,01,45,21.40
2017,08,02,01,46,21.40
2017,08,02,01,47,21.40
2017,08,02,01,48,21.40
2017,08,02,01,49,21.30
2017,08,02,01,50,21.30
2017,08,02,01,51,21.20
2017,08,02,01,52,21.10
2017,08,02,01,53,21.10
2017,08,02,01,54,21.10
2017,08,02,01,55,21.20
2017,08,02,01,56,21.20
2017,08,02,01,57,21.10
2017,08,02,01,58,21.10
2017,08,02,01,59,21.10
2017,08,02,02,00,21.10
2017,08,02,02,01,21.10
2017,08,02,02,02,21.00
2017,08,02,02,03,21.00
2017,08,02,02,04,21.00
2017,08,02,02,05,21.00
2017,08,02,02,06,21.10
2017,08,02,02,07,21.10
2017,08,02,02,08,21.10
2017,08,02,02,09,21.20
2017,08,02,02,10,21.20
2017,08,02,02,11,21.30
2017,08,02,02,12,21.30
2017,08,02,02,13,21.30
2017,08,02,02,14,21.30
2017,08,02,02,15,21.30
2017,08,02,02,16,21.30
2017,08,02,02,17,21.20
2017,08,02,02,18,21.20
2017,08,02,02,19,21.10
2017,08,02,02,20,21.00
2017,08,02,02,21,20.90
2017,08,02,02,22,20.90
2017,08,02,02,23,20.80
2017,08,02,02,24,20.80
2017,08,02,02,25,20.80
2017,08,02,02,26,20.70
2017,08,02,02,27,20.70
2017,08,02,02,28,20.60
2017,08,02,02,29,20.60
2017,08,02,02,30,20.60
2017,08,02,02,31,20.70
2017,08,02,02,32,20.70
2017,08,02,02,33,20.60
2017,08,02,02,34,20.60
2017,08,02,02,35,20.50
2017,08,02,02,36,20.50
2017,08,02,02,37,20.40
2017,08,02,02,38,20.40
2017,08,02,02,39,20.30
2017,08,02,02,40,20.20
2017,08,02,02,41,20.10
2017,08,02,02,42,20.10
2017,08,02,02,43,20.00
2017,08,02,02,44,20.00
2017,08,02,02,45,19.90
2017,08,02,02,46,19.90
2017,08,02,02,47,19.90
2017,08,02,02,48,19.80
2017,08,02,02,49,19.70
2017,08,02,02,50,19.70
2017,08,02,02,51,19.70
2017,08,02,02,52,19.80
2017,08,02,02,53,19.90
2017,08,02,02,54,20.10
2017,08,02,02,55,20.20
2017,08,02,02,56,20.20
2017,08,02,02,57,20.10
2017,08,02,02,58,20.00
2017,08,02,02,59,19.90
2017,08,02,03,00,19.80
2017,08,02,03,01,19.80
2017,08,02,03,02,19.80
2017,08,02,03,03,19.80
2017,08,02,03,04,19.80
2017,08,02,03,05,19.80
2017,08,02,03,06,19.80
2017,08,02,03,07,19.90
2017,08,02,03,08,20.00
2017,08,02,03,09,20.00
2017,08,02,03,10,20.00
2017,08,02,03,11,19.90
2017,08,02,03,12,19.90
2017,08,02,03,13,19.90
2017,08,02,03,14,19.90
2017,08,02,03,15,19.90
2017,08,02,03,16,19.90
2017,08,02,03,17,19.80
2017,08,02,03,18,19.80
2017,08,02,03,19,19.80
2017,08,02,03,20,19.80
2017,08,02,03,21,19.90
2017,08,02,03,22,19.90
2017,08,02,03,23,19.80
2017,08,02,03,24,19.70
2017,08,02,03,25,19.60
2017,08,02,03,26,19.50
2017,08,02,03,27,19.50
2017,08,02,03,28,19.40
2017,08,02,03,29,19.40
2017,08,02,03,30,19.30
2017,08,02,03,31,19.20
2017,08,02,03,32,19.20
2017,08,02,03,33,19.10
2017,08,02,03,34,19.10
2017,08,02,03,35,19.00
2017,08,02,03,36,18.90
2017,08,02,03,37,18.80
2017,08,02,03,38,18.80
2017,08,02,03,39,18.70
2017,08,02,03,40,18.70
2017,08,02,03,41,18.70
2017,08,02,03,42,18.70
2017,08,02,03,43,18.70
2017,08,02,03,44,18.70
2017,08,02,03,45,18.60
2017,08,02,03,46,18.60
2017,08,02,03,47,18.60
2017,08,02,03,48,18.60
2017,08,02,03,49,18.60
2017,08,02,03,50,18.80
2017,08,02,03,51,18.90
2017,08,02,03,52,19.00
2017,08,02,03,53,19.10
2017,08,02,03,54,19.20
2017,08,02,03,55,19.30
2017,08,02,03,56,19.50
2017,08,02,03,57,19.60
2017,08,02,03,58,19.80
2017,08,02,03,59,19.80
2017,08,02,04,00,19.90
2017,08,02,04,01,19.90
2017,08,02,04,02,19.90
2017,08,02,04,03,20.00
2017,08,02,04,04,20.10
2017,08,02,04,05,20.10
2017,08,02,04,06,20.10
2017,08,02,04,07,20.00
2017,08,02,04,08,19.90
2017,08,02,04,09,19.80
2017,08,02,04,10,19.80
2017,08,02,04,11,19.70
2017,08,02,04,12,19.50
2017,08,02,04,13,19.40
2017,08,02,04,14,19.30
2017,08,02,04,15,19.20
2017,08,02,04,16,19.10
2017,08,02,04,17,19.10
2017,08,02,04,18,19.10
2017,08,02,04,19,19.10
2017,08,02,04,20,19.10
2017,08,02,04,21,19.10
2017,08,02,04,22,19.00
2017,08,02,04,23,19.00
2017,08,02,04,24,19.10
2017,08,02,04,25,19.20
2017,08,02,04,26,19.30
2017,08,02,04,27,19.30
2017,08,02,04,28,19.30
2017,08,02,04,29,19.30
2017,08,02,04,30,19.30
2017,08,02,04,31,19.30
2017,08,02,04,32,19.30
2017,08,02,04,33,19.30
2017,08,02,04,34,19.20
2017,08,02,04,35,19.10
2017,08,02,04,36,19.00
2017,08,02,04,37,19.00
2017,08,02,04,38,18.90
2017,08,02,04,39,18.90
2017,08,02,04,40,18.90
2017,08,02,04,41,18.90
2017,08,02,04,42,18.80
2017,08,02,04,43,18.80
2017,08,02,04,44,18.80
2017,08,02,04,45,18.90
2017,08,02,04,46,18.90
2017,08,02,04,47,18.90
2017,08,02,04,48,18.90
2017,08,02,04,49,18.90
2017,08,02,04,50,18.90
2017,08,02,04,51,18.90
2017,08,02,04,52,18.90
2017,08,02,04,53,19.00
2017,08,02,04,54,19.00
2017,08,02,04,55,19.10
2017,08,02,04,56,19.00
2017,08,02,04,57,18.90
2017,08,02,04,58,18.90
2017,08,02,04,59,18.90
2017,08,02,05,00,18.90
2017,08,02,05,01,18.90
2017,08,02,05,02,18.90
2017,08,02,05,03,18.80
2017,08,02,05,04,18.80
2017,08,02,05,05,18.90
2017,08,02,05,06,18.90
2017,08,02,05,07,18.90
2017,08,02,05,08,18.90
2017,08,02,05,09,18.90
2017,08,02,05,10,18.90
2017,08,02,05,11,18.90
2017,08,02,05,12,18.80
2017,08,02,05,13,18.70
2017,08,02,05,14,18.60
2017,08,02,05,15,18.60
2017,08,02,05,16,18.60
2017,08,02,05,17,18.50
2017,08,02,05,18,18.60
2017,08,02,05,19,18.50
2017,08,02,05,20,18.50
2017,08,02,05,21,18.50
2017,08,02,05,22,18.40
2017,08,02,05,23,18.50
2017,08,02,05,24,18.60
2017,08,02,05,25,18.60
2017,08,02,05,26,18.60
2017,08,02,05,27,18.60
2017,08,02,05,28,18.70
2017,08,02,05,29,18.70
2017,08,02,05,30,18.80
2017,08,02,05,31,18.90
2017,08,02,05,32,18.90
2017,08,02,05,33,18.80
2017,08,02,05,34,18.80
2017,08,02,05,35,18.80
2017,08,02,05,36,18.80
2017,08,02,05,37,18.80
2017,08,02,05,38,18.80
2017,08,02,05,39,18.80
2017,08,02,05,40,18.80
2017,08,02,05,41,18.80
2017,08,02,05,42,18.80
2017,08,02,05,43,18.80
2017,08,02,05,44,18.80
2017,08,02,05,45,18.80
2017,08,02,05,46,18.70
2017,08,02,05,47,18.60
2017,08,02,05,48,18.50
2017,08,02,05,49,18.50
2017,08,02,05,50,18.40
2017,08,02,05,51,18.40
2017,08,02,05,52,18.50
2017,08,02,05,53,18.70
2017,08,02,05,54,18.80
2017,08,02,05,55,19.00
2017,08,02,05,56,19.10
2017,08,02,05,57,19.10
2017,08,02,05,58,19.10
2017,08,02,05,59,19.10
2017,08,02,06,00,19.10
2017,08,02,06,01,19.10
2017,08,02,06,02,19.10
2017,08,02,06,03,19.10
2017,08,02,06,04,19.10
2017,08,02,06,05,19.10
2017,08,02,06,06,19.10
2017,08,02,06,07,19.20
2017,08,02,06,08,19.20
2017,08,02,06,09,19.20
2017,08,02,06,10,19.20
2017,08,02,06,11,19.30
2017,08,02,06,12,19.30
2017,08,02,06,13,19.30
2017,08,02,06,14,19.30
2017,08,02,06,15,19.20
2017,08,02,06,16,19.20
2017,08,02,06,17,19.20
2017,08,02,06,18,19.10
2017,08,02,06,19,19.10
2017,08,02,06,20,19.10
2017,08,02,06,21,19.00
2017,08,02,06,22,19.00
2017,08,02,06,23,19.10
2017,08,02,06,24,19.10
2017,08,02,06,25,19.10
2017,08,02,06,26,19.00
2017,08,02,06,27,19.00
2017,08,02,06,28,18.90
2017,08,02,06,29,18.90
2017,08,02,06,30,18.80
2017,08,02,06,31,18.80
2017,08,02,06,32,18.90
2017,08,02,06,33,19.00
2017,08,02,06,34,19.00
2017,08,02,06,35,19.00
2017,08,02,06,36,19.00
2017,08,02,06,37,18.90
2017,08,02,06,38,18.90
2017,08,02,06,39,18.90
2017,08,02,06,40,18.90
2017,08,02,06,41,18.90
2017,08,02,06,42,18.80
2017,08,02,06,43,18.80
2017,08,02,06,44,18.80
2017,08,02,06,45,18.80
2017,08,02,06,46,18.80
2017,08,02,06,47,18.80
2017,08,02,06,48,18.80
2017,08,02,06,49,18.80
2017,08,02,06,50,18.80
2017,08,02,06,51,18.70
2017,08,02,06,52,18.70
2017,08,02,06,53,18.70
2017,08,02,06,54,18.70
2017,08,02,06,55,18.70
2017,08,02,06,56,18.70
2017,08,02,06,57,18.80
2017,08,02,06,58,19.00
2017,08,02,06,59,19.10
2017,08,02,07,00,19.20
2017,08,02,07,01,19.20
2017,08,02,07,02,19.20
2017,08,02,07,03,19.20
2017,08,02,07,04,19.20
2017,08,02,07,05,19.20
2017,08,02,07,06,19.20
2017,08,02,07,07,19.20
2017,08,02,07,08,19.20
2017,08,02,07,09,19.20
2017,08,02,07,10,19.20
2017,08,02,07,11,19.20
2017,08,02,07,12,19.30
2017,08,02,07,13,19.30
2017,08,02,07,14,19.30
2017,08,02,07,15,19.30
2017,08,02,07,16,19.30
2017,08,02,07,17,19.40
2017,08,02,07,18,19.50
2017,08,02,07,19,19.70
2017,08,02,07,20,19.80
2017,08,02,07,21,19.90
2017,08,02,07,22,19.90
2017,08,02,07,23,20.00
2017,08,02,07,24,20.10
2017,08,02,07,25,20.10
2017,08,02,07,26,20.20
2017,08,02,07,27,20.20
2017,08,02,07,28,20.20
2017,08,02,07,29,20.30
2017,08,02,07,30,20.30
2017,08,02,07,31,20.30
2017,08,02,07,32,20.30
2017,08,02,07,33,20.30
2017,08,02,07,34,20.40
2017,08,02,07,35,20.40
2017,08,02,07,36,20.40
2017,08,02,07,37,20.40
2017,08,02,07,38,20.40
2017,08,02,07,39,20.30
2017,08,02,07,40,20.30
2017,08,02,07,41,20.30
2017,08,02,07,42,20.30
2017,08,02,07,43,20.30
2017,08,02,07,44,20.30
2017,08,02,07,45,20.30
2017,08,02,07,46,20.30
2017,08,02,07,47,20.30
2017,08,02,07,48,20.30
2017,08,02,07,49,20.30
2017,08,02,07,50,20.40
2017,08,02,07,51,20.40
2017,08,02,07,52,20.40
2017,08,02,07,53,20.40
2017,08,02,07,54,20.40
2017,08,02,07,55,20.40
2017,08,02,07,56,20.40
2017,08,02,07,57,20.50
2017,08,02,07,58,20.50
2017,08,02,07,59,20.50
2017,08,02,08,00,20.50
2017,08,02,08,01,20.60
2017,08,02,08,02,20.60
2017,08,02,08,03,20.60
2017,08,02,08,04,20.60
2017,08,02,08,05,20.60
2017,08,02,08,06,20.60
2017,08,02,08,07,20.60
2017,08,02,08,08,20.60
2017,08,02,08,09,20.60
2017,08,02,08,10,20.60
2017,08,02,08,11,20.60
2017,08,02,08,12,20.60
2017,08,02,08,13,20.60
2017,08,02,08,14,20.60
2017,08,02,08,15,20.60
2017,08,02,08,16,20.60
2017,08,02,08,17,20.60
2017,08,02,08,18,20.60
2017,08,02,08,19,20.70
2017,08,02,08,20,20.70
2017,08,02,08,21,20.70
2017,08,02,08,22,20.70
2017,08,02,08,23,20.70
2017,08,02,08,24,20.70
2017,08,02,08,25,20.70
2017,08,02,08,26,20.60
2017,08,02,08,27,20.70
2017,08,02,08,28,20.70
2017,08,02,08,29,20.70
2017,08,02,08,30,20.70
2017,08,02,08,31,20.70
2017,08,02,08,32,20.70
2017,08,02,08,33,20.70
2017,08,02,08,34,20.70
2017,08,02,08,35,20.70
2017,08,02,08,36,20.70
2017,08,02,08,37,20.70
2017,08,02,08,38,20.70
2017,08,02,08,39,20.70
2017,08,02,08,40,20.70
2017,08,02,08,41,20.70
2017,08,02,08,42,20.70
2017,08,02,08,43,20.70
2017,08,02,08,44,20.70
2017,08,02,08,45,20.70
2017,08,02,08,46,20.70
2017,08,02,08,47,20.70
2017,08,02,08,48,20.70
2017,08,02,08,49,20.70
2017,08,02,08,50,20.70
2017,08,02,08,51,20.70
2017,08,02,08,52,20.70
2017,08,02,08,53,20.70
2017,08,02,08,54,20.70
2017,08,02,08,55,20.70
2017,08,02,08,56,20.70
2017,08,02,08,57,20.70
2017,08,02,08,58,20.80
2017,08,02,08,59,20.80
2017,08,02,09,00,20.80
2017,08,02,09,01,20.80
2017,08,02,09,02,20.80
2017,08,02,09,03,20.80
2017,08,02,09,04,20.80
2017,08,02,09,05,20.80
2017,08,02,09,06,20.80
2017,08,02,09,07,20.80
2017,08,02,09,08,20.70
2017,08,02,09,09,20.70
2017,08,02,09,10,20.70
2017,08,02,09,11,20.80
2017,08,02,09,12,20.80
2017,08,02,09,13,20.80
2017,08,02,09,14,20.80
2017,08,02,09,15,20.80
2017,08,02,09,16,20.80
2017,08,02,09,17,20.80
2017,08,02,09,18,20.80
2017,08,02,09,19,20.80
2017,08,02,09,20,20.80
2017,08,02,09,21,20.80
2017,08,02,09,22,20.80
2017,08,02,09,23,20.90
2017,08,02,09,24,20.90
2017,08,02,09,25,20.90
2017,08,02,09,26,20.90
2017,08,02,09,27,20.90
2017,08,02,09,28,20.90
2017,08,02,09,29,20.90
2017,08,02,09,30,21.00
2017,08,02,09,31,21.00
2017,08,02,09,32,21.00
2017,08,02,09,33,21.00
2017,08,02,09,34,21.00
2017,08,02,09,35,21.00
2017,08,02,09,36,21.00
2017,08,02,09,37,21.00
2017,08,02,09,38,21.00
2017,08,02,09,39,21.00
2017,08,02,09,40,21.00
2017,08,02,09,41,21.10
2017,08,02,09,42,21.10
2017,08,02,09,43,21.10
2017,08,02,09,44,21.10
2017,08,02,09,45,21.10
2017,08,02,09,46,21.10
2017,08,02,09,47,21.10
2017,08,02,09,48,21.10
2017,08,02,09,49,21.10
2017,08,02,09,50,21.10
2017,08,02,09,51,21.10
2017,08,02,09,52,21.20
2017,08,02,09,53,21.20
2017,08,02,09,54,21.20
2017,08,02,09,55,21.30
2017,08,02,09,56,21.30
2017,08,02,09,57,21.30
2017,08,02,09,58,21.30
2017,08,02,09,59,21.30
2017,08,02,10,00,21.30
2017,08,02,10,01,21.30
2017,08,02,10,02,21.30
2017,08,02,10,03,21.40
2017,08,02,10,04,21.40
2017,08,02,10,05,21.50
2017,08,02,10,06,21.50
2017,08,02,10,07,21.50
2017,08,02,10,08,21.60
2017,08,02,10,09,21.60
2017,08,02,10,10,21.60
2017,08,02,10,11,21.60
2017,08,02,10,12,21.60
2017,08,02,10,13,21.60
2017,08,02,10,14,21.60
2017,08,02,10,15,21.60
2017,08,02,10,16,21.60
2017,08,02,10,17,21.50
2017,08,02,10,18,21.60
2017,08,02,10,19,21.60
2017,08,02,10,20,21.60
2017,08,02,10,21,21.60
2017,08,02,10,22,21.70
2017,08,02,10,23,21.80
2017,08,02,10,24,21.80
2017,08,02,10,25,21.80
2017,08,02,10,26,21.90
2017,08,02,10,27,21.90
2017,08,02,10,28,21.90
2017,08,02,10,29,22.00
2017,08,02,10,30,22.00
2017,08,02,10,31,22.10
2017,08,02,10,32,22.10
2017,08,02,10,33,22.20
2017,08,02,10,34,22.20
2017,08,02,10,35,22.20
2017,08,02,10,36,22.10
2017,08,02,10,37,22.10
2017,08,02,10,38,22.00
2017,08,02,10,39,22.00
2017,08,02,10,40,22.00
2017,08,02,10,41,22.00
2017,08,02,10,42,22.00
2017,08,02,10,43,22.00
2017,08,02,10,44,22.00
2017,08,02,10,45,22.00
2017,08,02,10,46,22.00
2017,08,02,10,47,22.10
2017,08,02,10,48,22.10
2017,08,02,10,49,22.10
2017,08,02,10,50,22.00
2017,08,02,10,51,21.90
2017,08,02,10,52,21.80
2017,08,02,10,53,21.80
2017,08,02,10,54,21.80
2017,08,02,10,55,21.80
2017,08,02,10,56,21.80
2017,08,02,10,57,21.90
2017,08,02,10,58,22.00
2017,08,02,10,59,22.10
2017,08,02,11,00,22.20
2017,08,02,11,01,22.20
2017,08,02,11,02,22.30
2017,08,02,11,03,22.30
2017,08,02,11,04,22.30
2017,08,02,11,05,22.30
2017,08,02,11,06,22.40
2017,08,02,11,07,22.40
2017,08,02,11,08,22.40
2017,08,02,11,09,22.40
2017,08,02,11,10,22.40
2017,08,02,11,11,22.30
2017,08,02,11,12,22.20
2017,08,02,11,13,22.20
2017,08,02,11,14,22.20
2017,08,02,11,15,22.20
2017,08,02,11,16,22.30
2017,08,02,11,17,22.30
2017,08,02,11,18,22.30
2017,08,02,11,19,22.40
2017,08,02,11,20,22.40
2017,08,02,11,21,22.40
2017,08,02,11,22,22.40
2017,08,02,11,23,22.40
2017,08,02,11,24,22.50
2017,08,02,11,25,22.50
2017,08,02,11,26,22.50
2017,08,02,11,27,22.50
2017,08,02,11,28,22.50
2017,08,02,11,29,22.50
2017,08,02,11,30,22.50
2017,08,02,11,31,22.50
2017,08,02,11,32,22.40
2017,08,02,11,33,22.40
2017,08,02,11,34,22.30
2017,08,02,11,35,22.30
2017,08,02,11,36,22.20
2017,08,02,11,37,22.20
2017,08,02,11,38,22.30
2017,08,02,11,39,22.30
2017,08,02,11,40,22.20
2017,08,02,11,41,22.20
2017,08,02,11,42,22.30
2017,08,02,11,43,22.30
2017,08,02,11,44,22.40
2017,08,02,11,45,22.40
2017,08,02,11,46,22.40
2017,08,02,11,47,22.50
2017,08,02,11,48,22.60
2017,08,02,11,49,22.60
2017,08,02,11,50,22.70
2017,08,02,11,51,22.70
2017,08,02,11,52,22.70
2017,08,02,11,53,22.70
2017,08,02,11,54,22.70
2017,08,02,11,55,22.70
2017,08,02,11,56,22.70
2017,08,02,11,57,22.70
2017,08,02,11,58,22.70
2017,08,02,11,59,22.70
2017,08,02,12,00,22.70
2017,08,02,12,01,22.70
2017,08,02,12,02,22.70
2017,08,02,12,03,22.80
2017,08,02,12,04,22.80
2017,08,02,12,05,22.90
2017,08,02,12,06,22.90
2017,08,02,12,07,22.80
2017,08,02,12,08,22.80
2017,08,02,12,09,22.70
2017,08,02,12,10,22.70
2017,08,02,12,11,22.70
2017,08,02,12,12,22.70
2017,08,02,12,13,22.70
2017,08,02,12,14,22.70
2017,08,02,12,15,22.70
2017,08,02,12,16,22.70
2017,08,02,12,17,22.80
2017,08,02,12,18,22.80
2017,08,02,12,19,22.80
2017,08,02,12,20,22.70
2017,08,02,12,21,22.70
2017,08,02,12,22,22.80
2017,08,02,12,23,22.80
2017,08,02,12,24,22.90
2017,08,02,12,25,22.80
2017,08,02,12,26,22.80
2017,08,02,12,27,22.90
2017,08,02,12,28,22.90
2017,08,02,12,29,23.00
2017,08,02,12,30,23.10
2017,08,02,12,31,23.10
2017,08,02,12,32,23.10
2017,08,02,12,33,23.00
2017,08,02,12,34,23.00
2017,08,02,12,35,23.00
2017,08,02,12,36,23.00
2017,08,02,12,37,23.00
2017,08,02,12,38,23.10
2017,08,02,12,39,23.10
2017,08,02,12,40,23.10
2017,08,02,12,41,23.10
2017,08,02,12,42,23.10
2017,08,02,12,43,23.00
2017,08,02,12,44,23.00
2017,08,02,12,45,23.10
2017,08,02,12,46,23.10
2017,08,02,12,47,23.20
2017,08,02,12,48,23.20
2017,08,02,12,49,23.20
2017,08,02,12,50,23.20
2017,08,02,12,51,23.20
2017,08,02,12,52,23.20
2017,08,02,12,53,23.20
2017,08,02,12,54,23.20
2017,08,02,12,55,23.20
2017,08,02,12,56,23.20
2017,08,02,12,57,23.10
2017,08,02,12,58,23.00
2017,08,02,12,59,22.90
2017,08,02,13,00,22.90
2017,08,02,13,01,22.80
2017,08,02,13,02,22.90
2017,08,02,13,03,22.90
2017,08,02,13,04,23.00
2017,08,02,13,05,23.10
2017,08,02,13,06,23.10
2017,08,02,13,07,23.20
2017,08,02,13,08,23.20
2017,08,02,13,09,23.20
2017,08,02,13,10,23.20
2017,08,02,13,11,23.20
2017,08,02,13,12,23.30
2017,08,02,13,13,23.30
2017,08,02,13,14,23.40
2017,08,02,13,15,23.40
2017,08,02,13,16,23.50
2017,08,02,13,17,23.50
2017,08,02,13,18,23.60
2017,08,02,13,19,23.60
2017,08,02,13,20,23.60
2017,08,02,13,21,23.70
2017,08,02,13,22,23.70
2017,08,02,13,23,23.70
2017,08,02,13,24,23.70
2017,08,02,13,25,23.60
2017,08,02,13,26,23.60
2017,08,02,13,27,23.60
2017,08,02,13,28,23.60
2017,08,02,13,29,23.60
2017,08,02,13,30,23.60
2017,08,02,13,31,23.60
2017,08,02,13,32,23.70
2017,08,02,13,33,23.70
2017,08,02,13,34,23.80
2017,08,02,13,35,23.90
2017,08,02,13,36,24.00
2017,08,02,13,37,24.00
2017,08,02,13,38,24.10
2017,08,02,13,39,24.10
2017,08,02,13,40,24.10
2017,08,02,13,41,24.20
2017,08,02,13,42,24.20
2017,08,02,13,43,24.30
2017,08,02,13,44,24.20
2017,08,02,13,45,24.10
2017,08,02,13,46,24.10
2017,08,02,13,47,24.10
2017,08,02,13,48,24.10
2017,08,02,13,49,24.10
2017,08,02,13,50,24.10
2017,08,02,13,51,24.10
2017,08,02,13,52,24.10
2017,08,02,13,53,24.20
2017,08,02,13,54,24.20
2017,08,02,13,55,24.10
2017,08,02,13,56,24.10
2017,08,02,13,57,24.10
2017,08,02,13,58,24.10
2017,08,02,13,59,24.10
2017,08,02,14,00,24.10
2017,08,02,14,01,24.10
2017,08,02,14,02,24.20
2017,08,02,14,03,24.30
2017,08,02,14,04,24.30
2017,08,02,14,05,24.20
2017,08,02,14,06,24.20
2017,08,02,14,07,24.20
2017,08,02,14,08,24.20
2017,08,02,14,09,24.00
2017,08,02,14,10,24.00
2017,08,02,14,11,23.90
2017,08,02,14,12,23.90
2017,08,02,14,13,24.00
2017,08,02,14,14,24.20
2017,08,02,14,15,24.30
2017,08,02,14,16,24.40
2017,08,02,14,17,24.40
2017,08,02,14,18,24.50
2017,08,02,14,19,24.60
2017,08,02,14,20,24.60
2017,08,02,14,21,24.70
2017,08,02,14,22,24.70
2017,08,02,14,23,24.80
2017,08,02,14,24,24.90
2017,08,02,14,25,24.90
2017,08,02,14,26,24.80
2017,08,02,14,27,24.80
2017,08,02,14,28,24.80
2017,08,02,14,29,24.80
2017,08,02,14,30,24.80
2017,08,02,14,31,24.80
2017,08,02,14,32,24.80
2017,08,02,14,33,24.90
2017,08,02,14,34,24.90
2017,08,02,14,35,24.90
2017,08,02,14,36,24.90
2017,08,02,14,37,24.90
2017,08,02,14,38,24.90
2017,08,02,14,39,24.90
2017,08,02,14,40,25.00
2017,08,02,14,41,25.00
2017,08,02,14,42,25.10
2017,08,02,14,43,25.20
2017,08,02,14,44,25.30
2017,08,02,14,45,25.40
2017,08,02,14,46,25.50
2017,08,02,14,47,25.60
2017,08,02,14,48,25.60
2017,08,02,14,49,25.60
2017,08,02,14,50,25.60
2017,08,02,14,51,25.60
2017,08,02,14,52,25.60
2017,08,02,14,53,25.60
2017,08,02,14,54,25.60
2017,08,02,14,55,25.70
2017,08,02,14,56,25.70
2017,08,02,14,57,25.70
2017,08,02,14,58,25.70
2017,08,02,14,59,25.70
2017,08,02,15,00,25.70
2017,08,02,15,01,25.70
2017,08,02,15,02,25.70
2017,08,02,15,03,25.80
2017,08,02,15,04,25.90
2017,08,02,15,05,26.00
2017,08,02,15,06,26.10
2017,08,02,15,07,26.20
2017,08,02,15,08,26.30
2017,08,02,15,09,26.40
2017,08,02,15,10,26.50
2017,08,02,15,11,26.70
2017,08,02,15,12,26.70
2017,08,02,15,13,26.70
2017,08,02,15,14,26.70
2017,08,02,15,15,26.70
2017,08,02,15,16,26.70
2017,08,02,15,17,26.60
2017,08,02,15,18,26.60
2017,08,02,15,19,26.60
2017,08,02,15,20,26.50
2017,08,02,15,21,26.30
2017,08,02,15,22,26.30
2017,08,02,15,23,26.30
2017,08,02,15,24,26.30
2017,08,02,15,25,26.20
2017,08,02,15,26,26.20
2017,08,02,15,27,26.20
2017,08,02,15,28,26.20
2017,08,02,15,29,26.30
2017,08,02,15,30,26.40
2017,08,02,15,31,26.50
2017,08,02,15,32,26.50
2017,08,02,15,33,26.60
2017,08,02,15,34,26.70
2017,08,02,15,35,26.70
2017,08,02,15,36,26.80
2017,08,02,15,37,26.90
2017,08,02,15,38,27.00
2017,08,02,15,39,27.00
2017,08,02,15,40,27.10
2017,08,02,15,41,27.20
2017,08,02,15,42,27.20
2017,08,02,15,43,27.20
2017,08,02,15,44,27.30
2017,08,02,15,45,27.30
2017,08,02,15,46,27.20
2017,08,02,15,47,27.20
2017,08,02,15,48,27.20
2017,08,02,15,49,27.20
2017,08,02,15,50,27.30
2017,08,02,15,51,27.40
2017,08,02,15,52,27.50
2017,08,02,15,53,27.60
2017,08,02,15,54,27.60
2017,08,02,15,55,27.70
2017,08,02,15,56,27.70
2017,08,02,15,57,27.80
2017,08,02,15,58,27.90
2017,08,02,15,59,27.90
2017,08,02,16,00,28.00
2017,08,02,16,01,28.10
2017,08,02,16,02,28.20
2017,08,02,16,03,28.20
2017,08,02,16,04,28.30
2017,08,02,16,05,28.40
2017,08,02,16,06,28.50
2017,08,02,16,07,28.50
2017,08,02,16,08,28.60
2017,08,02,16,09,28.70
2017,08,02,16,10,28.80
2017,08,02,16,11,28.80
2017,08,02,16,12,28.90
2017,08,02,16,13,29.00
2017,08,02,16,14,29.10
2017,08,02,16,15,29.20
2017,08,02,16,16,29.30
2017,08,02,16,17,29.30
2017,08,02,16,18,29.40
2017,08,02,16,19,29.40
2017,08,02,16,20,29.40
2017,08,02,16,21,29.40
2017,08,02,16,22,29.40
2017,08,02,16,23,29.40
2017,08,02,16,24,29.40
2017,08,02,16,25,29.50
2017,08,02,16,26,29.50
2017,08,02,16,27,29.50
2017,08,02,16,28,29.50
2017,08,02,16,29,29.50
2017,08,02,16,30,29.40
2017,08,02,16,31,29.40
2017,08,02,16,32,29.30
2017,08,02,16,33,29.20
2017,08,02,16,34,29.10
2017,08,02,16,35,29.10
2017,08,02,16,36,29.10
2017,08,02,16,37,29.10
2017,08,02,16,38,29.10
2017,08,02,16,39,29.10
2017,08,02,16,40,29.10
2017,08,02,16,41,29.20
2017,08,02,16,42,29.20
2017,08,02,16,43,29.20
2017,08,02,16,44,29.30
2017,08,02,16,45,29.30
2017,08,02,16,46,29.30
2017,08,02,16,47,29.30
2017,08,02,16,48,29.20
2017,08,02,16,49,29.20
2017,08,02,16,50,29.30
2017,08,02,16,51,29.30
2017,08,02,16,52,29.30
2017,08,02,16,53,29.40
2017,08,02,16,54,29.40
2017,08,02,16,55,29.50
2017,08,02,16,56,29.40
2017,08,02,16,57,29.40
2017,08,02,16,58,29.40
2017,08,02,16,59,29.40
2017,08,02,17,00,29.40
2017,08,02,17,01,29.40
2017,08,02,17,02,29.40
2017,08,02,17,03,29.40
2017,08,02,17,04,29.40
2017,08,02,17,05,29.40
2017,08,02,17,06,29.30
2017,08,02,17,07,29.30
2017,08,02,17,08,29.30
2017,08,02,17,09,29.30
2017,08,02,17,10,29.30
2017,08,02,17,11,29.30
2017,08,02,17,12,29.20
2017,08,02,17,13,29.30
2017,08,02,17,14,29.30
2017,08,02,17,15,29.30
2017,08,02,17,16,29.40
2017,08,02,17,17,29.50
2017,08,02,17,18,29.50
2017,08,02,17,19,29.50